SL-8 R/B (3230 NORAD) Tracking and Keplerian Element Data

This shows tracking and keplerian element data for the satellite.

Feedback or suggestion? Click here.




ElementValue
Catalog3230
NameSL-8 R/B
Epoch Orbit97210
Epoch Day12.92110894
Epoch Year2024
RAAN111.1995
Inclination74.0358
Eccentricity0.0026529
Argument of Perigee144.6991
Mean Anonmoly215.5956
Mean Motion14.94798706
Decay Rate4.64E-05
L11 03230U 68040B 24012.92110894 .00004640 00000+0 42689-3 0 9994
L22 03230 74.0358 111.1995 0026529 144.6991 215.5956 14.94798706972109



Live tracking and technical data element details for SL-8 R/B (NORAD 3230). SL-8 R/B can be tracked NOW for your location showing map with azimuth and elevation plus other details from your city location.







IsCatalogInMostPopularTable: catalog: 3230, numindb: 242
Update: records affected: 1



GetName: 3230 SL-8 R/B

Hit Count: updated at: Fri, 19 Apr 2024 11:55:18 GMT